[[{"header":{"parameterUnit":"m.s-1","parameterCategory":2,"la1":30.2991,"la2":30.254,"lo1":-89.0895,"lo2":-89.0444,"dy":0.0017,"dx":0.0017,"nx":28,"ny":28,"refTime":"2025-08-14T03:00:00:Z","depth":"0","parameterNumber":2,"parameterNumberName":"U-component_of_CURRENTS"},"data":[0,0,0,0,0,0,0,0,0,0,0,0,0,0,0,0,0,0,0,0,0,0,0,0,0,0,0,0,0,0,0,0,0,0,0,0,0,0,0,0,0,0,0,0,0,0,0,0,0,0,0,0,0,0,0,0,0,0,0.3243,0.3243,0,0.3237,0.3237,0.3237,0.3226,0.3226,0.3225,0.3225,0.3138,0.3136,0.3134,0,0,0,0,0,0,0,0,0,0,0,0,0,0.3241,0.3241,0.3243,0.3243,0.3243,0.3237,0.3237,0.3237,0.3226,0.3226,0.3225,0.3225,0.3139,0.3136,0.3134,0,0,0,0,0,0,0,0,0,0,0,0,0,0.324,0.3241,0.3243,0.3236,0.3235,0.3237,0.3237,0.3237,0.3226,0.3226,0.3225,0.3225,0.3139,0.3136,0.3134,0.3125,0,0,0.3124,0.3123,0,0,0,0,0,0,0,0,0.324,0.324,0.3237,0.3236,0.3235,0.323,0.3204,0.3195,0.3226,0.3231,0.3225,0.3224,0.3161,0.3156,0.3159,0.312,0.3117,0.3124,0.3122,0.3121,0.312,0,0,0,0,0,0,0,0.324,0.3241,0.3242,0.3237,0.3236,0.3231,0.323,0.3203,0.3198,0.323,0.3229,0.3227,0.316,0.3162,0.3157,0.3115,0.3124,0.3121,0.312,0.3118,0.3059,0.3059,0,0,0,0,0,0,0.3239,0.3241,0.3242,0.3241,0.3235,0.3231,0.3231,0.3234,0.32,0.3195,0.3227,0.3226,0.3167,0.316,0.3153,0.3136,0.3121,0.3118,0.3116,0.3059,0.3059,0.3059,0,0,0,0,0,0,0.3239,0.324,0.3242,0.3239,0.3239,0.3232,0.3235,0.3234,0.3235,0.3198,0.3192,0.3229,0.3167,0.3158,0.3134,0.3132,0.3117,0.3114,0.3058,0.3059,0.3059,0.3102,0,0,0,0,0,0,0.324,0.324,0.325,0.324,0.3239,0.3244,0.3235,0.3234,0.3233,0.3232,0.3198,0.3189,0.3166,0.3139,0.3131,0.3128,0.3112,0.3058,0.3059,0.3059,0.3101,0.3104,0.3107,0,0,0,0,0,0.324,0.3244,0.3251,0.3251,0.3251,0.3244,0.3243,0.3237,0.3234,0.3236,0.3217,0.3191,0.3136,0.3137,0.3128,0.3123,0.3058,0.3058,0.3059,0.3099,0.3104,0.3107,0,0,0,0,0,0,0.3262,0.3243,0.325,0.3254,0.3253,0.3241,0.3242,0.324,0.3229,0.3228,0.3194,0.3184,0.3163,0.3139,0.3141,0.3108,0.3092,0.3091,0.3126,0.313,0.3133,0.3141,0.3109,0,0,0,0,0,0.327,0.3262,0.3255,0.3263,0.3259,0.3255,0.3254,0.3252,0.3237,0.3233,0.3209,0.3183,0.3159,0.3142,0.3118,0.3099,0.311,0.309,0.3093,0.3096,0.3098,0.3112,0.3117,0.3061,0.3061,0.3061,0,0,0.3284,0.3272,0.3272,0.3266,0.3264,0.3258,0.3253,0.3252,0.3253,0.3223,0.3213,0.3193,0.3158,0.314,0.3128,0.3118,0.3125,0.3097,0.31,0.3099,0.3113,0.3119,0.3123,0.3061,0.3061,0.3061,0,0,0.3297,0.3296,0.3291,0.3285,0.3279,0.3269,0.3269,0.326,0.3261,0.3252,0.3232,0.3214,0.3176,0.3156,0.3138,0.3144,0.3144,0.3134,0.3153,0.3167,0.3172,0.3177,0.3234,0.3243,0.3133,0.3133,0.3133,0,0.3326,0.3311,0.3293,0.3287,0.3283,0.3271,0.3272,0.3269,0.3257,0.3254,0.3251,0.3213,0.3182,0.3163,0.3166,0.315,0.3177,0.3142,0.3173,0.3177,0.3181,0.3238,0.3247,0.3135,0.3135,0.3135,0.3135,0,0.3332,0.3322,0.3317,0.33,0.3295,0.3291,0.3281,0.3276,0.3271,0.3267,0.3258,0.3236,0.3214,0.3201,0.3183,0.319,0.321,0.318,0.3167,0.319,0.3248,0.3257,0.3139,0.3138,0.3137,0.3137,0,0,0.3389,0.3334,0.3333,0.332,0.33,0.3293,0.3288,0.3277,0.3272,0.3272,0.327,0.3246,0.3247,0.3229,0.3213,0.3219,0.3277,0.3216,0.3215,0.328,0.3352,0.3346,0.3355,0.3259,0.3259,0.326,0.3397,0,0.3406,0.3381,0.3354,0.3337,0.332,0.3303,0.3296,0.3287,0.3279,0.3272,0.3266,0.3256,0.3255,0.325,0.3263,0.3258,0.3297,0.3245,0.3313,0.3316,0.3312,0.3363,0.3126,0.3225,0.3406,0.3407,0.3408,0,0.3418,0.3394,0.3375,0.3334,0.333,0.3321,0.33,0.3297,0.3282,0.3281,0.3284,0.328,0.3294,0.3284,0.3339,0.3312,0.3347,0.3354,0.3359,0.3339,0.3324,0.3223,0.3235,0.3122,0.3422,0.3421,0.342,0,0.3436,0.3406,0.3384,0.3374,0.3333,0.3328,0.3314,0.3298,0.3296,0.329,0.3297,0.3311,0.3334,0.3361,0.3407,0.3375,0.3477,0.3429,0.3473,0.3475,0.3277,0.326,0.3185,0.3488,0.3488,0.3488,0.3487,0,0.3442,0.3421,0.3388,0.3371,0.3349,0.3337,0.3323,0.3305,0.3305,0.3296,0.3314,0.3328,0.3355,0.3414,0.3435,0.3505,0.3518,0.3497,0.3505,0.3291,0.3273,0.3168,0.3134,0.3493,0.3492,0.3491,0.349,0,0.3433,0.3416,0.3378,0.3349,0.3343,0.3325,0.3313,0.3303,0.3321,0.3314,0.332,0.3365,0.3428,0.3486,0.3541,0.3558,0.3488,0.3629,0.3406,0.3384,0.3277,0.3254,0.3148,0.3068,0.3675,0.3675,0.3676,0,0.3415,0.3399,0.3355,0.3323,0.3301,0.3286,0.3272,0.3291,0.3281,0.3329,0.3321,0.3407,0.3445,0.3568,0.3559,0.3625,0.3514,0.348,0.3357,0.3259,0.3239,0.314,0.3073,0.3132,0.3128,0.3125,0.3122,0,0.3385,0.337,0.3333,0.3271,0.3246,0.3218,0.3205,0.3214,0.3239,0.3249,0.3288,0.3339,0.3445,0.3383,0.3484,0.3479,0.326,0.3418,0.3332,0.2833,0.2698,0.2627,0.3106,0.3093,0.3096,0.3098,0.3099,0.3101,0.3366,0.3328,0.3283,0.3216,0.3168,0.3132,0.3068,0.3078,0.307,0.3005,0.3166,0.3121,0.3149,0.3225,0.3251,0.3071,0.3122,0.2914,0.2913,0.2838,0.268,0.3143,0.3127,0.3129,0.3132,0.3134,0.3136,0,0.3363,0.3313,0.3233,0.3133,0.3027,0.3042,0.2989,0.2887,0.2815,0.281,0.2803,0.2738,0.2686,0.2705,0.2614,0.2543,0.2435,0.2459,0.2201,0.2177,0.2577,0.2467,0.2284,0.2284,0.2284,0.2284,0.2285,0.2285,0.3373,0.3306,0.3249,0.3046,0.2938,0.2763,0.2703,0.2558,0.248,0.2299,0.2185,0.2209,0.2297,0.2241,0.2111,0.2069,0.1934,0.1826,0.1935,0.2137,0.2176,0.2213,0.2099,0.1842,0.1841,0.1354,0.1351,0.1348]},{"header":{"parameterUnit":"m.s-1","parameterCategory":2,"la1":30.2991,"la2":30.254,"lo1":-89.0895,"lo2":-89.0444,"dy":0.0017,"dx":0.0017,"nx":28,"ny":28,"refTime":"2025-08-14T03:00:00:Z","depth":"0","parameterNumber":3,"parameterNumberName":"V-component_of_CURRENTS"},"data":[0,0,0,0,0,0,0,0,0,0,0,0,0,0,0,0,0,0,0,0,0,0,0,0,0,0,0,0,0,0,0,0,0,0,0,0,0,0,0,0,0,0,0,0,0,0,0,0,0,0,0,0,0,0,0,0,0,0,-0.0532,-0.0532,0,-0.059,-0.0591,-0.0592,-0.0649,-0.065,-0.065,-0.065,-0.0778,-0.0781,-0.0784,0,0,0,0,0,0,0,0,0,0,0,0,0,-0.06,-0.0598,-0.0532,-0.0532,-0.0533,-0.059,-0.0591,-0.0593,-0.0649,-0.065,-0.065,-0.065,-0.0777,-0.0781,-0.0785,0,0,0,0,0,0,0,0,0,0,0,0,0,-0.061,-0.0598,-0.0532,-0.0564,-0.0567,-0.059,-0.0591,-0.0593,-0.0649,-0.065,-0.065,-0.065,-0.0776,-0.078,-0.0785,-0.0807,0,0,-0.08,-0.0802,0,0,0,0,0,0,0,0,-0.061,-0.0609,-0.0559,-0.0562,-0.0565,-0.0608,-0.0662,-0.0666,-0.0649,-0.0624,-0.065,-0.0651,-0.0724,-0.0733,-0.075,-0.0813,-0.0819,-0.08,-0.0803,-0.0805,-0.0806,0,0,0,0,0,0,0,-0.0609,-0.0607,-0.0561,-0.0559,-0.0563,-0.0619,-0.062,-0.0664,-0.0677,-0.0626,-0.0629,-0.0627,-0.0727,-0.0745,-0.0753,-0.082,-0.08,-0.0804,-0.0807,-0.0809,-0.09,-0.09,0,0,0,0,0,0,-0.0583,-0.0605,-0.0559,-0.0562,-0.0583,-0.0617,-0.0619,-0.0598,-0.0675,-0.0685,-0.0626,-0.0629,-0.0737,-0.0748,-0.0758,-0.0769,-0.0805,-0.081,-0.0812,-0.0901,-0.09,-0.09,0,0,0,0,0,0,-0.0584,-0.0577,-0.0556,-0.0582,-0.0583,-0.0613,-0.0592,-0.0599,-0.0612,-0.0673,-0.0686,-0.063,-0.0737,-0.0751,-0.0788,-0.0776,-0.0812,-0.0816,-0.0901,-0.09,-0.09,-0.0805,0,0,0,0,0,0,-0.0585,-0.0577,-0.0556,-0.0579,-0.058,-0.0561,-0.0591,-0.06,-0.0608,-0.0612,-0.068,-0.0693,-0.0739,-0.078,-0.0792,-0.0783,-0.082,-0.0902,-0.0901,-0.09,-0.0808,-0.0801,-0.0794,0,0,0,0,0,-0.0587,-0.0537,-0.0555,-0.0549,-0.0549,-0.0559,-0.0566,-0.0594,-0.0607,-0.0609,-0.0652,-0.069,-0.0784,-0.0783,-0.0798,-0.079,-0.0902,-0.0901,-0.09,-0.0812,-0.0802,-0.0795,0,0,0,0,0,0,-0.056,-0.0539,-0.0558,-0.0507,-0.0534,-0.0567,-0.0555,-0.0585,-0.0621,-0.0621,-0.0687,-0.0703,-0.0728,-0.0773,-0.0771,-0.0814,-0.0848,-0.085,-0.0776,-0.0768,-0.0761,-0.0732,-0.0824,0,0,0,0,0,-0.0542,-0.0497,-0.0517,-0.0482,-0.0483,-0.0523,-0.053,-0.0555,-0.0586,-0.0602,-0.065,-0.0698,-0.0736,-0.0762,-0.0803,-0.0829,-0.0845,-0.0834,-0.0826,-0.082,-0.0806,-0.0826,-0.0819,-0.0896,-0.0896,-0.0896,0,0,-0.0522,-0.0506,-0.0482,-0.0474,-0.049,-0.0484,-0.0528,-0.0527,-0.0533,-0.061,-0.0625,-0.0673,-0.0736,-0.0761,-0.0777,-0.0798,-0.0801,-0.0819,-0.0813,-0.0802,-0.0824,-0.0817,-0.081,-0.0896,-0.0896,-0.0896,0,0,-0.0464,-0.0445,-0.0399,-0.0409,-0.0421,-0.0444,-0.0439,-0.0473,-0.0495,-0.0524,-0.0573,-0.0611,-0.0677,-0.0716,-0.0745,-0.0725,-0.0759,-0.0741,-0.0688,-0.0707,-0.07,-0.0695,-0.0675,-0.0668,-0.0742,-0.0742,-0.0742,0,-0.0448,-0.0393,-0.0395,-0.0369,-0.0367,-0.0418,-0.0398,-0.0424,-0.0473,-0.0484,-0.0515,-0.0597,-0.0653,-0.0679,-0.0673,-0.0708,-0.071,-0.0712,-0.0695,-0.069,-0.0686,-0.0668,-0.0662,-0.0737,-0.0738,-0.0738,-0.0739,0,-0.0371,-0.0338,-0.0309,-0.0287,-0.0292,-0.0277,-0.0312,-0.0324,-0.0358,-0.0394,-0.0429,-0.0508,-0.0555,-0.0582,-0.0624,-0.0624,-0.0629,-0.0677,-0.071,-0.0672,-0.0656,-0.0651,-0.0731,-0.0732,-0.0734,-0.0735,0,0,-0.0307,-0.0263,-0.0255,-0.0242,-0.0247,-0.0242,-0.0236,-0.0252,-0.0243,-0.0308,-0.0305,-0.0387,-0.043,-0.0465,-0.0527,-0.0553,-0.0524,-0.0594,-0.0597,-0.0561,-0.0528,-0.0462,-0.0451,-0.0568,-0.0567,-0.0567,-0.0516,0,-0.0257,-0.0186,-0.0183,-0.0139,-0.011,-0.0145,-0.0137,-0.016,-0.0192,-0.02,-0.0279,-0.0309,-0.0385,-0.0409,-0.0441,-0.0507,-0.0512,-0.0531,-0.0582,-0.0582,-0.0519,-0.0444,-0.0399,-0.0344,-0.0512,-0.0511,-0.0511,0,-0.0192,-0.0147,-0.0088,-0.0062,-0.0052,-0.0039,-0.0028,-0.0033,-0.0057,-0.0086,-0.0125,-0.0184,-0.0227,-0.0304,-0.0375,-0.038,-0.0432,-0.0488,-0.0488,-0.0457,-0.0508,-0.0418,-0.033,-0.0425,-0.0504,-0.0505,-0.0505,0,-0.0146,-0.0089,-0.0037,-0.0026,-0.0,0.0017,0.0022,0.0008,0.0017,-0.0009,-0.0004,-0.0074,-0.0102,-0.0184,-0.0284,-0.0329,-0.0343,-0.0429,-0.0412,-0.0407,-0.0392,-0.0387,-0.0393,-0.046,-0.046,-0.046,-0.046,0,-0.0095,-0.0052,-0.0006,0.0025,0.0094,0.0075,0.0127,0.0118,0.0115,0.0153,0.0061,0.0077,-0.0076,-0.0107,-0.0215,-0.0263,-0.0285,-0.0366,-0.0383,-0.0354,-0.0346,-0.0451,-0.0516,-0.0458,-0.0458,-0.0459,-0.0459,0,-0.0053,-0.003,0.0051,0.0103,0.0121,0.0174,0.0212,0.0251,0.022,0.0272,0.0269,0.0207,0.0173,0.0054,-0.006,-0.0156,-0.0256,-0.0247,-0.0173,-0.0182,-0.0269,-0.033,-0.0323,-0.0351,-0.0221,-0.0219,-0.0217,0,-0.0026,0.0021,0.0125,0.0202,0.0235,0.0298,0.0347,0.0317,0.0363,0.0362,0.041,0.038,0.0404,0.0288,0.0127,0.001,-0.0138,-0.0062,-0.0154,-0.0223,-0.0308,-0.0359,-0.0389,-0.0092,-0.009,-0.0088,-0.0086,0,0.0046,0.0089,0.0168,0.0332,0.0413,0.0491,0.0554,0.0592,0.0574,0.062,0.0689,0.0703,0.0594,0.0508,0.0331,0.0209,-0.0094,-0.002,-0.0132,-0.0213,-0.0232,-0.0283,-0.0157,-0.0067,-0.0069,-0.007,-0.0071,-0.0072,0.011,0.0202,0.0329,0.0483,0.0599,0.0709,0.0778,0.0833,0.0918,0.0994,0.0961,0.102,0.0817,0.0597,0.0417,0.0111,0.0073,-0.0014,-0.0081,-0.0124,-0.0152,0.0056,0.0143,0.0142,0.0142,0.0141,0.0141,0,0.0199,0.0311,0.0476,0.0672,0.0845,0.0848,0.0949,0.1014,0.1148,0.1203,0.1285,0.1244,0.1016,0.0691,0.0289,0.0074,-0.0052,-0.006,-0.0162,-0.0192,-0.0038,-0.0036,0.0065,0.0065,0.0065,0.0066,0.0066,0.0066,0.0252,0.0428,0.0528,0.0855,0.1002,0.1168,0.1229,0.1311,0.1369,0.1472,0.1507,0.1516,0.1274,0.0543,0.0039,-0.0079,-0.0258,-0.0247,-0.0354,-0.0303,-0.0306,-0.0309,-0.0323,-0.0284,-0.0284,-0.0481,-0.0483,-0.0485]}],[{"header":{"parameterUnit":"m.s-1","parameterCategory":2,"la1":30.2991,"la2":30.254,"lo1":-89.0895,"lo2":-89.0444,"dy":0.0017,"dx":0.0017,"nx":28,"ny":28,"refTime":"2025-08-14T03:00:00:Z","depth":"2","parameterNumber":2,"parameterNumberName":"U-component_of_CURRENTS"},"data":[0,0,0,0,0,0,0,0,0,0,0,0,0,0,0,0,0,0,0,0,0,0,0,0,0,0,0,0,0,0,0,0,0,0,0,0,0,0,0,0,0,0,0,0,0,0,0,0,0,0,0,0,0,0,0,0,0,0,0.2401,0.2401,0,0.239,0.2391,0.2391,0.2391,0.2391,0.2391,0.239,0.2542,0.2546,0.255,0,0,0,0,0,0,0,0,0,0,0,0,0,0.2232,0.2237,0.2401,0.24,0.24,0.239,0.2391,0.2391,0.2391,0.2391,0.239,0.239,0.254,0.2545,0.2551,0,0,0,0,0,0,0,0,0,0,0,0,0,0.2278,0.2239,0.2401,0.2395,0.2394,0.239,0.2391,0.2391,0.2391,0.2391,0.239,0.239,0.2538,0.2545,0.2551,0.2603,0,0,0.2571,0.2574,0,0,0,0,0,0,0,0,0.2276,0.2285,0.2396,0.2395,0.2394,0.2386,0.2386,0.2468,0.2392,0.2398,0.239,0.239,0.2502,0.2511,0.2516,0.261,0.2617,0.2572,0.2576,0.2579,0.2581,0,0,0,0,0,0,0,0.2273,0.2284,0.2403,0.2395,0.2394,0.2326,0.2335,0.24,0.2461,0.2398,0.2396,0.2386,0.2503,0.251,0.252,0.2619,0.2572,0.2578,0.2582,0.2584,0.2853,0.2856,0,0,0,0,0,0,0.2274,0.2283,0.2403,0.2402,0.2325,0.233,0.234,0.2394,0.2456,0.2462,0.2387,0.2386,0.2499,0.2512,0.2526,0.2673,0.2579,0.2585,0.2589,0.2849,0.2853,0.2857,0,0,0,0,0,0,0.2272,0.2288,0.2403,0.2332,0.2342,0.2335,0.2395,0.2394,0.2443,0.2445,0.2455,0.244,0.2499,0.2516,0.2602,0.2676,0.2588,0.2594,0.2846,0.2851,0.2855,0.2917,0,0,0,0,0,0,0.2268,0.2289,0.2348,0.2336,0.2346,0.2438,0.2395,0.2394,0.2432,0.2433,0.2494,0.2504,0.25,0.2592,0.2609,0.2683,0.2599,0.2842,0.2848,0.2853,0.291,0.2923,0.2933,0,0,0,0,0,0.2263,0.2309,0.2353,0.2367,0.2425,0.244,0.2442,0.2433,0.2436,0.2474,0.2498,0.2505,0.2643,0.26,0.2619,0.2697,0.2839,0.2846,0.2853,0.2905,0.292,0.2933,0,0,0,0,0,0,0.2244,0.2313,0.236,0.2426,0.2461,0.2438,0.2452,0.247,0.2519,0.2529,0.254,0.2553,0.2665,0.2675,0.2628,0.2793,0.2747,0.2758,0.278,0.2795,0.2806,0.2782,0.2604,0,0,0,0,0,0.228,0.2339,0.2396,0.2442,0.2474,0.2489,0.2501,0.2514,0.2534,0.2556,0.2599,0.2648,0.2705,0.2742,0.2798,0.2886,0.2871,0.2953,0.2964,0.2973,0.2969,0.3014,0.3028,0.288,0.288,0.288,0,0,0.2278,0.2318,0.2354,0.2443,0.2464,0.2502,0.2498,0.2533,0.2574,0.257,0.2657,0.2707,0.2742,0.283,0.2883,0.2849,0.3005,0.2983,0.299,0.298,0.3023,0.3037,0.3049,0.2885,0.2884,0.2883,0,0,0.2248,0.2359,0.2395,0.2436,0.2493,0.2525,0.2557,0.2606,0.2656,0.2742,0.275,0.2831,0.2926,0.2951,0.2974,0.3091,0.3075,0.3135,0.3164,0.3209,0.322,0.323,0.3204,0.3211,0.3127,0.3127,0.3127,0,0.2267,0.2307,0.2399,0.2426,0.2453,0.2547,0.2582,0.2647,0.2719,0.2774,0.2785,0.2929,0.2975,0.3054,0.3089,0.3118,0.3113,0.3102,0.322,0.323,0.3239,0.321,0.3217,0.3131,0.3131,0.313,0.313,0,0.2252,0.229,0.2301,0.2397,0.2463,0.2495,0.261,0.2712,0.2799,0.2851,0.2992,0.3044,0.3113,0.3165,0.316,0.3263,0.3227,0.3236,0.3173,0.3257,0.3222,0.3228,0.3136,0.3135,0.3134,0.3133,0,0,0.2232,0.23,0.2288,0.2341,0.2453,0.2513,0.2627,0.2761,0.2836,0.2962,0.3045,0.3167,0.3207,0.3236,0.3266,0.331,0.3372,0.3301,0.3302,0.3252,0.3423,0.3239,0.3227,0.3405,0.3407,0.3409,0.3362,0,0.2191,0.2234,0.2276,0.2334,0.2388,0.2521,0.2605,0.2751,0.2879,0.2996,0.311,0.3198,0.323,0.3266,0.3327,0.337,0.3396,0.338,0.3369,0.3367,0.3176,0.3232,0.3022,0.295,0.3368,0.3368,0.3369,0,0.2122,0.2176,0.2238,0.2336,0.2377,0.2443,0.2645,0.2734,0.2918,0.3007,0.3129,0.3205,0.3308,0.3321,0.3414,0.3404,0.3419,0.3441,0.344,0.3248,0.3195,0.2943,0.2944,0.3379,0.3378,0.3377,0.3377,0,0.2061,0.2118,0.2189,0.2225,0.238,0.2461,0.2563,0.2744,0.2826,0.3018,0.3075,0.3215,0.3264,0.335,0.3375,0.3418,0.3434,0.3495,0.3332,0.3317,0.3122,0.3085,0.3553,0.3553,0.3553,0.3553,0.3553,0,0.1983,0.2036,0.2173,0.2222,0.2302,0.2441,0.2552,0.2668,0.2815,0.2883,0.3065,0.3099,0.328,0.3306,0.3364,0.3317,0.3415,0.3329,0.3303,0.3134,0.31,0.3468,0.3458,0.3551,0.3552,0.3552,0.3552,0,0.1907,0.1997,0.2066,0.222,0.2271,0.2346,0.2504,0.257,0.2725,0.2817,0.2866,0.3017,0.3067,0.3161,0.3251,0.3244,0.3254,0.3203,0.2944,0.2889,0.3122,0.3118,0.3081,0.3075,0.3069,0.3064,0.306,0,0.1887,0.1915,0.203,0.2081,0.2159,0.2285,0.234,0.2503,0.256,0.2729,0.2734,0.2829,0.2849,0.2875,0.2904,0.2924,0.3062,0.2704,0.2769,0.31,0.308,0.3084,0.3087,0.2535,0.2527,0.252,0.2515,0,0.1826,0.1859,0.1919,0.1983,0.2056,0.2132,0.2234,0.2251,0.2422,0.2467,0.2499,0.2533,0.2585,0.2507,0.251,0.2514,0.2701,0.2569,0.2994,0.2671,0.2577,0.256,0.2583,0.2457,0.2463,0.2467,0.247,0.2473,0.1755,0.1748,0.1795,0.187,0.1943,0.1982,0.1979,0.2066,0.2088,0.2141,0.2213,0.219,0.2245,0.2165,0.2104,0.2106,0.2334,0.229,0.2315,0.2345,0.2275,0.2175,0.1963,0.1966,0.1968,0.197,0.1972,0,0.1638,0.1666,0.1695,0.1747,0.1769,0.1858,0.1896,0.1865,0.1821,0.1879,0.188,0.1725,0.1658,0.1745,0.1665,0.1674,0.1724,0.162,0.1694,0.1751,0.1802,0.1709,0.1244,0.1242,0.124,0.1238,0,0,0.1596,0.1571,0.1583,0.1576,0.1621,0.1577,0.1567,0.1535,0.1551,0.1494,0.1462,0.155,0.1642,0.1396,0.1391,0.1302,0.1517,0.1251,0.1836,0.1976,0.2024,0.2185,0.2103,0,0,0,0,0]},{"header":{"parameterUnit":"m.s-1","parameterCategory":2,"la1":30.2991,"la2":30.254,"lo1":-89.0895,"lo2":-89.0444,"dy":0.0017,"dx":0.0017,"nx":28,"ny":28,"refTime":"2025-08-14T03:00:00:Z","depth":"2","parameterNumber":3,"parameterNumberName":"V-component_of_CURRENTS"},"data":[0,0,0,0,0,0,0,0,0,0,0,0,0,0,0,0,0,0,0,0,0,0,0,0,0,0,0,0,0,0,0,0,0,0,0,0,0,0,0,0,0,0,0,0,0,0,0,0,0,0,0,0,0,0,0,0,0,0,0.0787,0.0786,0,0.0714,0.0712,0.0711,0.0657,0.0657,0.0657,0.0657,0.0533,0.053,0.0526,0,0,0,0,0,0,0,0,0,0,0,0,0,0.074,0.0741,0.0787,0.0786,0.0786,0.0714,0.0712,0.0711,0.0657,0.0657,0.0657,0.0657,0.0534,0.053,0.0526,0,0,0,0,0,0,0,0,0,0,0,0,0,0.0719,0.0742,0.0787,0.0754,0.0751,0.0714,0.0712,0.0711,0.0657,0.0657,0.0657,0.0657,0.0535,0.053,0.0525,0.0496,0,0,0.051,0.0508,0,0,0,0,0,0,0,0,0.072,0.072,0.0759,0.0756,0.0752,0.0699,0.065,0.0638,0.0657,0.0687,0.0657,0.0657,0.0587,0.0578,0.0558,0.049,0.0485,0.051,0.0507,0.0505,0.0503,0,0,0,0,0,0,0,0.0722,0.0722,0.0753,0.0759,0.0755,0.0695,0.0693,0.0647,0.0633,0.0685,0.0682,0.0681,0.0584,0.0563,0.0554,0.0483,0.051,0.0506,0.0503,0.0501,0.0405,0.0405,0,0,0,0,0,0,0.0748,0.0724,0.0755,0.0751,0.0741,0.0697,0.0694,0.0712,0.0635,0.0625,0.0682,0.0679,0.0571,0.056,0.055,0.0516,0.0505,0.05,0.0497,0.0404,0.0405,0.0405,0,0,0,0,0,0,0.0748,0.0753,0.0758,0.0738,0.0736,0.0699,0.0719,0.0711,0.0685,0.0634,0.0622,0.0665,0.057,0.0557,0.0526,0.0511,0.0498,0.0494,0.0404,0.0404,0.0405,0.0445,0,0,0,0,0,0,0.0747,0.0753,0.0754,0.0741,0.0738,0.0744,0.0719,0.0709,0.0688,0.0684,0.0616,0.0604,0.0569,0.0534,0.0521,0.0504,0.049,0.0403,0.0404,0.0405,0.0443,0.0447,0.045,0,0,0,0,0,0.0746,0.0757,0.0755,0.0757,0.0748,0.0744,0.0736,0.0705,0.0687,0.068,0.0646,0.0606,0.0529,0.0531,0.0515,0.0496,0.0403,0.0404,0.0405,0.0442,0.0446,0.045,0,0,0,0,0,0,0.0722,0.0752,0.075,0.0765,0.0759,0.0737,0.0722,0.0705,0.0669,0.0658,0.0611,0.0598,0.0566,0.0532,0.0534,0.0474,0.0458,0.0456,0.0492,0.0495,0.0499,0.0516,0.0486,0,0,0,0,0,0.0725,0.0742,0.0756,0.0758,0.0766,0.0742,0.0728,0.0713,0.069,0.0673,0.0631,0.0589,0.0557,0.0529,0.0496,0.0457,0.0437,0.0437,0.044,0.0443,0.0449,0.0423,0.0425,0.0408,0.0408,0.0408,0,0,0.0705,0.0728,0.073,0.0754,0.0744,0.0758,0.0732,0.072,0.0719,0.0664,0.0638,0.0598,0.0554,0.0521,0.0501,0.0487,0.0438,0.0444,0.0447,0.0451,0.0424,0.0426,0.0427,0.0409,0.0408,0.0408,0,0,0.0695,0.0712,0.073,0.0748,0.0756,0.0747,0.075,0.0735,0.0718,0.0694,0.0661,0.0626,0.0562,0.0536,0.0513,0.0515,0.0464,0.049,0.0507,0.0482,0.0483,0.0484,0.0462,0.0461,0.0484,0.0484,0.0484,0,0.0672,0.072,0.0726,0.0764,0.0782,0.0753,0.078,0.0759,0.0728,0.0728,0.0693,0.0622,0.0574,0.0553,0.0544,0.0522,0.0497,0.0494,0.0487,0.0487,0.0487,0.0464,0.0462,0.0486,0.0486,0.0485,0.0485,0,0.0689,0.0735,0.075,0.0799,0.0804,0.0825,0.0824,0.0813,0.0782,0.0765,0.0734,0.0667,0.0625,0.0598,0.0561,0.0536,0.0517,0.0501,0.0477,0.0491,0.0466,0.0463,0.0489,0.0488,0.0487,0.0487,0,0,0.067,0.0747,0.0764,0.0809,0.084,0.0853,0.0859,0.0873,0.0887,0.0823,0.0828,0.0748,0.0698,0.067,0.0612,0.0576,0.0542,0.0528,0.0526,0.0508,0.0482,0.0416,0.0406,0.0517,0.0517,0.0516,0.0465,0,0.0699,0.0776,0.0806,0.0876,0.0926,0.0931,0.0953,0.0951,0.0922,0.0914,0.0842,0.0803,0.0729,0.0686,0.0643,0.0575,0.0535,0.0558,0.047,0.0467,0.0408,0.0401,0.0408,0.0357,0.0461,0.0461,0.0461,0,0.0757,0.08,0.0864,0.0965,0.0987,0.1007,0.1049,0.1062,0.1047,0.1018,0.096,0.0891,0.0817,0.0746,0.0635,0.0648,0.0563,0.0507,0.0504,0.0427,0.0396,0.0359,0.0347,0.0455,0.0455,0.0456,0.0456,0,0.0784,0.088,0.0926,0.0957,0.1025,0.1053,0.1083,0.1092,0.1113,0.1062,0.1045,0.0959,0.0893,0.0791,0.0639,0.0632,0.0526,0.0508,0.0378,0.0373,0.0354,0.0347,0.0432,0.0432,0.0432,0.0432,0.0432,0,0.0864,0.0921,0.0943,0.0978,0.105,0.1085,0.1149,0.116,0.1169,0.1191,0.1084,0.1053,0.0895,0.0801,0.0675,0.0511,0.0548,0.0379,0.0351,0.0367,0.0363,0.0429,0.0429,0.043,0.0431,0.0431,0.0431,0,0.0929,0.0938,0.0996,0.1042,0.1071,0.1113,0.1201,0.125,0.1232,0.1246,0.1217,0.112,0.0977,0.0825,0.066,0.0548,0.0409,0.034,0.0364,0.0338,0.0268,0.0271,0.0201,0.0199,0.0196,0.0194,0.0192,0,0.0966,0.0999,0.103,0.1052,0.1079,0.1152,0.1224,0.1267,0.1302,0.1284,0.1289,0.1152,0.1043,0.0785,0.0567,0.0346,0.0341,0.0214,0.0192,0.0262,0.0243,0.025,0.0256,0.0192,0.019,0.0189,0.0188,0,0.103,0.1019,0.1046,0.1094,0.1149,0.1235,0.1321,0.1351,0.1389,0.1383,0.1341,0.1252,0.0992,0.0747,0.0444,0.0303,0.025,0.0178,0.0253,0.0238,0.0245,0.0229,0.0237,0.0177,0.0178,0.0179,0.0179,0.018,0.105,0.1071,0.1087,0.1141,0.1202,0.1281,0.1338,0.1395,0.1434,0.1396,0.1364,0.1223,0.1002,0.0562,0.0343,0.0119,0.0132,0.0062,0.007,0.0078,0.0075,0.0076,-0.0024,-0.0024,-0.0024,-0.0024,-0.0024,0,0.1071,0.1104,0.1152,0.1194,0.1258,0.1298,0.1386,0.1407,0.1417,0.1388,0.1322,0.1067,0.0801,0.0553,0.0206,0.0004,0.0019,-0.0057,0.0022,0.0033,0.0043,0.0042,-0.0068,-0.0068,-0.0069,-0.0069,0,0,0.1078,0.1126,0.1152,0.1229,0.1268,0.1341,0.1372,0.1376,0.1358,0.128,0.1198,0.1098,0.0826,0.0572,0.0311,0.0122,0.0122,0.0078,0.0131,0.0265,0.0277,0.0123,0.0134,0,0,0,0,0]}],[{"header":{"parameterUnit":"m.s-1","parameterCategory":2,"la1":30.2991,"la2":30.254,"lo1":-89.0895,"lo2":-89.0444,"dy":0.0017,"dx":0.0017,"nx":28,"ny":28,"refTime":"2025-08-14T03:00:00:Z","depth":"4","parameterNumber":2,"parameterNumberName":"U-component_of_CURRENTS"},"data":[0,0,0,0,0,0,0,0,0,0,0,0,0,0,0,0,0,0,0,0,0,0,0,0,0,0,0,0,0,0,0,0,0,0,0,0,0,0,0,0,0,0,0,0,0,0,0,0,0,0,0,0,0,0,0,0,0,0,0.0606,0.0607,0,0.0623,0.0623,0.0623,0.0607,0.0607,0.0607,0.0607,0.0654,0.0655,0.0657,0,0,0,0,0,0,0,0,0,0,0,0,0,0.0577,0.0577,0.0606,0.0607,0.0608,0.0623,0.0623,0.0622,0.0607,0.0607,0.0607,0.0607,0.0654,0.0655,0.0657,0,0,0,0,0,0,0,0,0,0,0,0,0,0.0585,0.0577,0.0606,0.0607,0.0608,0.0623,0.0623,0.0622,0.0607,0.0607,0.0607,0.0607,0.0653,0.0655,0.0657,0.0669,0,0,0.0663,0.0664,0,0,0,0,0,0,0,0,0.0585,0.0586,0.0606,0.0607,0.0608,0.0619,0.063,0.0642,0.0607,0.0601,0.0607,0.0607,0.0649,0.0652,0.0645,0.0671,0.0673,0.0663,0.0664,0.0665,0.0665,0,0,0,0,0,0,0,0.0584,0.0585,0.0606,0.0607,0.0608,0.0613,0.0613,0.0632,0.062,0.0601,0.0602,0.0614,0.0649,0.0643,0.0646,0.0674,0.0663,0.0664,0.0666,0.0666,0.076,0.0761,0,0,0,0,0,0,0.0595,0.0584,0.0606,0.0607,0.0604,0.0614,0.0614,0.061,0.062,0.0623,0.0614,0.0614,0.064,0.0644,0.0648,0.0728,0.0665,0.0667,0.0668,0.0758,0.076,0.0761,0,0,0,0,0,0,0.0594,0.0596,0.0605,0.0602,0.0605,0.0615,0.0611,0.0611,0.0629,0.063,0.0633,0.0637,0.064,0.0645,0.0669,0.0727,0.0667,0.0669,0.0757,0.0759,0.0761,0.0846,0,0,0,0,0,0,0.0592,0.0595,0.06,0.0603,0.0606,0.0627,0.0611,0.0611,0.0639,0.0638,0.065,0.0653,0.0641,0.0666,0.0671,0.0729,0.0671,0.0755,0.0758,0.076,0.0842,0.0851,0.0859,0,0,0,0,0,0.0591,0.0598,0.0599,0.0603,0.061,0.0628,0.063,0.0632,0.064,0.0649,0.065,0.0654,0.0686,0.0668,0.0674,0.0734,0.0754,0.0757,0.076,0.0838,0.0849,0.0859,0,0,0,0,0,0,0.0603,0.0598,0.0599,0.0608,0.0625,0.0629,0.0646,0.0652,0.066,0.067,0.0662,0.0665,0.0704,0.0704,0.0684,0.0765,0.0725,0.0729,0.0783,0.0793,0.0802,0.0789,0.0672,0,0,0,0,0,0.0606,0.0611,0.0612,0.0633,0.0636,0.0648,0.066,0.0668,0.0677,0.0681,0.0689,0.0702,0.0717,0.0742,0.0742,0.0795,0.0789,0.0838,0.0847,0.0854,0.0846,0.0884,0.0896,0.0771,0.0771,0.0771,0,0,0.0619,0.0626,0.0627,0.0637,0.0649,0.0662,0.0654,0.0687,0.0712,0.0688,0.0724,0.0726,0.0731,0.0772,0.0795,0.0788,0.0889,0.0858,0.0864,0.0852,0.0889,0.0901,0.0912,0.0773,0.0773,0.0773,0,0,0.0654,0.0653,0.066,0.067,0.0698,0.0702,0.0719,0.0732,0.0747,0.0777,0.0769,0.0801,0.0826,0.0844,0.0856,0.0917,0.0917,0.0934,0.0991,0.103,0.104,0.105,0.1067,0.1077,0.0958,0.0958,0.0958,0,0.066,0.0678,0.0673,0.0688,0.0708,0.0724,0.0745,0.0763,0.0788,0.0814,0.0799,0.0835,0.0858,0.0908,0.0937,0.0941,0.0949,0.0955,0.1042,0.1051,0.1059,0.1074,0.1084,0.0963,0.0962,0.0962,0.0961,0,0.0696,0.0711,0.0726,0.074,0.0763,0.079,0.081,0.0843,0.0867,0.0885,0.0926,0.0926,0.0956,0.0981,0.0985,0.1064,0.1046,0.1035,0.1018,0.1077,0.1089,0.1098,0.0969,0.0968,0.0966,0.0965,0,0,0.0683,0.0729,0.0737,0.0757,0.0791,0.0814,0.0867,0.0912,0.0958,0.0971,0.1024,0.1053,0.1058,0.107,0.108,0.1122,0.1211,0.112,0.112,0.114,0.1287,0.1194,0.1194,0.1222,0.1223,0.1225,0.1277,0,0.0704,0.0746,0.0767,0.0821,0.0837,0.0873,0.0923,0.0978,0.1012,0.1068,0.1083,0.1129,0.1093,0.113,0.116,0.1193,0.1236,0.1196,0.1223,0.1223,0.1136,0.1202,0.1231,0.1283,0.1285,0.1287,0.1288,0,0.0711,0.0749,0.0797,0.0863,0.0875,0.0919,0.1004,0.1048,0.1128,0.1171,0.1201,0.1204,0.1266,0.1232,0.128,0.1257,0.1286,0.1293,0.1296,0.1178,0.1146,0.1208,0.1303,0.1302,0.1301,0.13,0.1299,0,0.0698,0.0759,0.0808,0.0827,0.0905,0.0957,0.1008,0.1089,0.1134,0.1246,0.1289,0.1321,0.1362,0.1371,0.1376,0.1355,0.1418,0.1395,0.132,0.1313,0.1343,0.1332,0.1442,0.1442,0.1442,0.1442,0.1442,0,0.0683,0.0719,0.0816,0.084,0.0919,0.0977,0.1051,0.1128,0.1218,0.1274,0.1339,0.1359,0.1405,0.1424,0.1416,0.1382,0.1452,0.1331,0.1326,0.1378,0.1371,0.1349,0.1338,0.1444,0.1443,0.1443,0.1443,0,0.0637,0.0694,0.0755,0.0868,0.0909,0.0969,0.1068,0.1115,0.1225,0.13,0.1346,0.1429,0.1464,0.1467,0.1513,0.1435,0.1422,0.1403,0.1459,0.1455,0.128,0.1273,0.1317,0.1314,0.1312,0.131,0.1308,0,0.0612,0.0643,0.077,0.0816,0.0869,0.0955,0.1011,0.1124,0.1167,0.1299,0.133,0.1417,0.1451,0.1421,0.1444,0.1426,0.1404,0.1385,0.1321,0.1279,0.1271,0.1267,0.1262,0.1304,0.1304,0.1303,0.1303,0,0.0574,0.0629,0.0685,0.0782,0.0857,0.0911,0.0998,0.1029,0.1151,0.1243,0.1297,0.1314,0.136,0.1364,0.1383,0.1353,0.1382,0.136,0.1364,0.1303,0.1265,0.1258,0.1256,0.1295,0.1296,0.1296,0.1297,0,0.0555,0.0582,0.0668,0.0742,0.0819,0.0867,0.091,0.0972,0.1032,0.1183,0.1185,0.1275,0.1354,0.1327,0.132,0.1309,0.1273,0.1205,0.1216,0.1226,0.1166,0.1102,0.1085,0,0,0,0,0,0.0538,0.0562,0.0623,0.0704,0.0766,0.0819,0.0905,0.0946,0.1053,0.1071,0.1133,0.1169,0.1187,0.1215,0.1183,0.1258,0.127,0.1211,0.1196,0.125,0.1259,0.1194,0,0,0,0,0,0,0.0533,0.058,0.0606,0.0651,0.0696,0.0762,0.0818,0.0891,0.0898,0.1007,0.1025,0.109,0.1125,0.1209,0.1163,0.117,0.1131,0.1257,0.1254,0.1244,0.1253,0.126,0.1196,0,0,0,0,0]},{"header":{"parameterUnit":"m.s-1","parameterCategory":2,"la1":30.2991,"la2":30.254,"lo1":-89.0895,"lo2":-89.0444,"dy":0.0017,"dx":0.0017,"nx":28,"ny":28,"refTime":"2025-08-14T03:00:00:Z","depth":"4","parameterNumber":3,"parameterNumberName":"V-component_of_CURRENTS"},"data":[0,0,0,0,0,0,0,0,0,0,0,0,0,0,0,0,0,0,0,0,0,0,0,0,0,0,0,0,0,0,0,0,0,0,0,0,0,0,0,0,0,0,0,0,0,0,0,0,0,0,0,0,0,0,0,0,0,0,0.0467,0.0467,0,0.0423,0.0422,0.0421,0.039,0.039,0.039,0.039,0.0337,0.0335,0.0333,0,0,0,0,0,0,0,0,0,0,0,0,0,0.0443,0.0443,0.0467,0.0467,0.0467,0.0423,0.0422,0.0421,0.039,0.039,0.039,0.039,0.0337,0.0335,0.0333,0,0,0,0,0,0,0,0,0,0,0,0,0,0.0427,0.0444,0.0467,0.045,0.0448,0.0423,0.0422,0.042,0.0389,0.039,0.039,0.039,0.0338,0.0335,0.0333,0.0311,0,0,0.0326,0.0324,0,0,0,0,0,0,0,0,0.0428,0.0427,0.0453,0.0451,0.045,0.0417,0.0394,0.0385,0.0389,0.0406,0.039,0.0391,0.0366,0.0361,0.0345,0.0308,0.0306,0.0325,0.0324,0.0323,0.0322,0,0,0,0,0,0,0,0.0429,0.0428,0.0444,0.0453,0.0451,0.0417,0.0415,0.0391,0.038,0.0405,0.0404,0.0407,0.0364,0.0347,0.0343,0.0305,0.0325,0.0323,0.0322,0.0321,0.0257,0.0257,0,0,0,0,0,0,0.0449,0.043,0.0446,0.0444,0.0445,0.0418,0.0415,0.0423,0.0381,0.0376,0.0407,0.0406,0.0351,0.0346,0.0341,0.0335,0.0323,0.032,0.0319,0.0257,0.0257,0.0257,0,0,0,0,0,0,0.0449,0.0451,0.0448,0.0439,0.0437,0.0419,0.0426,0.0422,0.0417,0.0383,0.0378,0.041,0.0351,0.0345,0.0318,0.0332,0.0319,0.0317,0.0257,0.0257,0.0257,0.0308,0,0,0,0,0,0,0.0448,0.0451,0.0468,0.0441,0.0439,0.0438,0.0427,0.0421,0.0421,0.0419,0.0384,0.0378,0.0351,0.0322,0.0315,0.0328,0.0315,0.0258,0.0257,0.0257,0.0307,0.031,0.0312,0,0,0,0,0,0.0448,0.0467,0.0469,0.0472,0.0462,0.0439,0.0433,0.0417,0.0421,0.0415,0.0388,0.038,0.0315,0.0319,0.0312,0.0325,0.0258,0.0257,0.0257,0.0306,0.0309,0.0312,0,0,0,0,0,0,0.0468,0.0466,0.0467,0.0487,0.0469,0.0436,0.0439,0.0428,0.0401,0.0406,0.0372,0.0363,0.0344,0.0324,0.0329,0.0303,0.0288,0.0286,0.0327,0.033,0.0333,0.033,0.0313,0,0,0,0,0,0.0483,0.0495,0.048,0.0496,0.0493,0.047,0.0464,0.0451,0.0425,0.0414,0.0392,0.0365,0.0333,0.0325,0.0292,0.028,0.0248,0.0284,0.0287,0.0289,0.0281,0.0238,0.0236,0.0255,0.0255,0.0255,0,0,0.0496,0.0498,0.0506,0.0502,0.049,0.0482,0.0465,0.046,0.0455,0.0413,0.0404,0.0371,0.0329,0.0308,0.03,0.0298,0.0269,0.0289,0.0292,0.0281,0.0237,0.0235,0.0234,0.0255,0.0255,0.0255,0,0,0.0512,0.053,0.0538,0.0527,0.0519,0.0503,0.0508,0.0483,0.0476,0.0455,0.0424,0.0395,0.0359,0.0326,0.0306,0.0304,0.0279,0.0307,0.0326,0.0285,0.0283,0.0281,0.025,0.0245,0.0316,0.0316,0.0316,0,0.0528,0.0541,0.0534,0.0532,0.0537,0.0518,0.0521,0.0504,0.0473,0.0466,0.046,0.0385,0.0363,0.032,0.0324,0.0311,0.0286,0.0322,0.029,0.0287,0.0284,0.0252,0.0245,0.0318,0.0318,0.0318,0.0317,0,0.0535,0.0552,0.0557,0.0554,0.0552,0.0555,0.0538,0.0535,0.0531,0.0505,0.0467,0.0415,0.0372,0.0366,0.0347,0.0317,0.0307,0.0294,0.0285,0.0285,0.0251,0.0244,0.0322,0.0321,0.032,0.0319,0,0,0.0553,0.0562,0.0566,0.0578,0.0571,0.0571,0.0572,0.0559,0.0557,0.0516,0.0501,0.0441,0.0412,0.0385,0.0354,0.0322,0.0295,0.0311,0.0308,0.0287,0.0211,0.0195,0.0184,0.0281,0.028,0.0279,0.0201,0,0.0563,0.0582,0.058,0.0601,0.0613,0.0606,0.0611,0.0596,0.0573,0.0551,0.0491,0.0462,0.042,0.0411,0.0365,0.0308,0.0274,0.0317,0.0207,0.0204,0.0195,0.0175,0.0275,0.0195,0.0193,0.0192,0.0191,0,0.0567,0.0586,0.0618,0.0644,0.065,0.0662,0.0675,0.0669,0.0627,0.0615,0.0554,0.0501,0.0438,0.0417,0.0291,0.0322,0.0273,0.0225,0.0221,0.0178,0.0172,0.019,0.0176,0.0177,0.0179,0.018,0.018,0,0.0592,0.0614,0.0653,0.0659,0.0678,0.0703,0.0717,0.0693,0.0693,0.0657,0.0643,0.054,0.0506,0.0405,0.0295,0.0302,0.0161,0.0158,0.0087,0.0086,0.0104,0.0106,0.0076,0.0076,0.0076,0.0076,0.0076,0,0.0606,0.0635,0.0676,0.0696,0.0742,0.0748,0.0774,0.0775,0.0761,0.0749,0.0681,0.0632,0.0504,0.0398,0.03,0.0159,0.0158,0.0077,0.0058,0.0129,0.0135,0.0099,0.0102,0.0073,0.0074,0.0074,0.0075,0,0.0622,0.0646,0.0687,0.0734,0.0756,0.0791,0.0828,0.0835,0.0831,0.0812,0.081,0.0707,0.0574,0.0427,0.027,0.0175,0.0046,0.0004,0.0091,0.008,-0.0001,0.0007,-0.0089,-0.009,-0.0091,-0.0092,-0.0093,0,0.0625,0.0655,0.0723,0.0751,0.078,0.0829,0.0861,0.0879,0.0878,0.0835,0.0824,0.0712,0.0622,0.0373,0.0233,0.0035,0.0012,-0.005,-0.0035,-0.0012,-0.0021,-0.0012,-0.0003,-0.0095,-0.0095,-0.0095,-0.0096,0,0.0629,0.0667,0.0702,0.0772,0.0821,0.0859,0.0904,0.0911,0.0914,0.0908,0.0821,0.0691,0.0542,0.0357,0.0214,0.0068,-0.0014,-0.0063,-0.0061,-0.0047,-0.0021,-0.0027,-0.0017,-0.01,-0.0099,-0.0099,-0.0099,0,0.063,0.0659,0.0718,0.0775,0.0832,0.0876,0.0896,0.0896,0.0899,0.0862,0.0823,0.0673,0.059,0.0373,0.0226,0.0092,0.006,0.0017,0.0014,0.0017,0.0069,0.0119,0.0056,0,0,0,0,0,0.0623,0.0667,0.0717,0.0774,0.083,0.0873,0.0915,0.0925,0.0925,0.087,0.0851,0.071,0.0489,0.0385,0.0248,0.0205,0.0039,0.0039,-0.001,-0.0123,-0.0118,-0.0077,0,0,0,0,0,0,0.062,0.0675,0.0711,0.0763,0.0808,0.0869,0.0902,0.0907,0.0866,0.0849,0.073,0.0676,0.0461,0.0574,0.0247,0.0205,0.0153,-0.006,-0.0064,-0.0125,-0.0121,-0.0117,-0.0073,0,0,0,0,0]}]]